Miscellaneous Local Product
Issued by NWS North Platte, NE

Home | Current Version | Previous Version | Text Only | Print | Product List | Glossary On
Versions: 1 2 3 4 5 6 7 8 9 10 11 12 13 14 15 16 17 18 19 20 21 22 23 24 25 26 27 28 29 30 31 32 33 34 35 36 37 38 39 40 41 42 43 44 45 46 47 48 49 50
000
AXUS43 KLBF 192210
MISLBF


WESTERN AND NORTH CENTRAL NEBRASKA HOURLY WEATHER ROUNDUP
NATIONAL WEATHER SERVICE NORTH PLATTE NE
500 PM CDT FRI SEP 19 2014

***STATIONS NOT REPORTING VARIABLES SUCH AS SKY/WEATHER OR
PRESSURE ARE PROVIDED BY THE NEBRASKA DEPARTMENT OF
ROADS...RAWS...AND APRS NETWORKS...AND ARE NOT UNDER
NATIONAL WEATHER SERVICE QUALITY CONTROL***

...OBSERVATIONS IN AND NEAR THE EASTERN PANHANDLE OF NEBRASKA...

CITY           SKY/WX    TMP DP  RH WIND       PRES   REMARKS
PINE RIDGE     SUNNY     86  51  29 W10       29.82S
CHADRON        MOSUNNY   88  49  25 W14       29.83S
ALLIANCE       SUNNY     89  47  23 MISG      29.86S
SIDNEY         SUNNY     92  44  19 NE7G17    29.89F
WHITECLAY        N/A     85  50  29 W6          N/A
RUSHVILLE        N/A     91  38  15 W15         N/A
CRESCENT LAKE    N/A     89  51  26 N5G12       N/A
LISCO            N/A     92  37  14 W13         N/A
BIG SPRINGS      N/A     92  49  22 CALM        N/A
$$

...OBSERVATIONS IN NORTH CENTRAL NEBRASKA...

CITY           SKY/WX    TMP DP  RH WIND       PRES   REMARKS
VALENTINE      SUNNY     89  53  29 N9        29.79S
THEDFORD       SUNNY     89  58  35 N9        29.80S
AINSWORTH      SUNNY     86  56  36 N7        29.78S
O`NEILL        SUNNY     88  65  46 N6        29.75S
ORD            SUNNY     88  64  44 S17G24    29.75F
BROKEN BOW     SUNNY     94  55  26 SW17G25   29.78F HX  92
SPRINGVIEW       N/A     88  59  37 CALM        N/A
ROSE             N/A     92  63  37 CALM        N/A  HX  93
NEWPORT          N/A     89  56  33 NW5         N/A
COMSTOCK         N/A     95  65  36 S13         N/A  HX  97
CHAMBERS         N/A     89  62  40 S12         N/A
$$

...OBSERVATIONS IN SOUTHWEST NEBRASKA AND FAR NORTHEAST COLORADO...

CITY           SKY/WX    TMP DP  RH WIND       PRES   REMARKS
WRAY           FAIR      94  47  20 S12       29.84F HX  91
HOLYOKE        FAIR      95  46  18 CALM      29.85S HX  91
IMPERIAL       SUNNY     92  50  23 S15       29.82F
OGALLALA       SUNNY     93  50  23 N10       29.82S HX  90
NORTH PLATTE   SUNNY     92  55  28 SW10      29.78S HX  90
MCCOOK         SUNNY     92  57  30 S20G28    29.81S HX  90
LEXINGTON      SUNNY     92  57  30 SW15      29.80S HX  90
PAXTON           N/A     92  57  30 SW7         N/A  HX  90
SUTHERLAND       N/A     97  46  17 SW8         N/A  HX  93
BRADY            N/A     91  59  34 SE3         N/A  HX  90
GOTHENBURG       N/A     92  52  25 S12         N/A
CALLAWAY         N/A     90  62  39 SW17        N/A  HX  90
$$

...SOME WEATHER OBSERVATIONS FROM AROUND THE REGION...

CITY           SKY/WX    TMP DP  RH WIND       PRES   REMARKS
DENVER         MOSUNNY   87  40  19 SE7       29.96F
LARAMIE        MOSUNNY   77  40  26 W14       30.11S
CHEYENNE       MOSUNNY   84  40  21 NW12G23   30.01S
SCOTTSBLUFF    MOSUNNY   89  48  24 NW7       29.87F
RAPID CITY     PTSUNNY   81  49  32 N12       29.83S
PIERRE         MOSUNNY   86  55  34 W12       29.70R
WINNER         FAIR      87  53  31 W9        29.74F
SIOUX FALLS    MOSUNNY   86  64  47 SW8       29.69S
OMAHA          MOSUNNY   85  68  56 S20       29.79F
GRAND ISLAND   SUNNY     89  61  38 SW23G30   29.81R
KANSAS CITY    MOSUNNY   77  69  76 S13       29.95F
WICHITA        MOSUNNY   90  64  42 S17       29.91F HX  91
HAYS           SUNNY     90  61  37 S22G28    29.87F
LIBERAL        MOSUNNY   88  57  35 S21       29.94S
GOODLAND       MOSUNNY   88  57  34 S18G26    29.88F
$$



USA.gov is the U.S. government's official web portal to all federal, state and local government web resources and services.